Wind_Speed
19 20 21 21 21 20 21 21 22 22 22 22 21 20 20 20 18 16 15 13 11 10 9 8 7 6 5 5 5 5 6 6 8 9 10 10 9 9 8 9 9 9 8 7 6 5 4 6 7 6 4 5 5 3 4 4 5 9 10 10 8 7 7 6 6 6 5 5 4 3 2 3 4 4 3 3 3 2 2 2 2 3 2 2 2 3 2 1
19 19 20 21 21 20 20 21 21 22 21 21 21 20 20 20 19 17 15 13 11 10 9 8 7 6 5 4 4 4 4 6 8 7 8 10 9 8 7 6 7 7 6 5 5 3 2 4 4 5 2 2 3 4 5 6 6 8 9 10 7 4 6 7 5 5 4 3 2 1 2 3 3 3 3 3 2 3 3 3 3 3 3 1 1 2 2 2
18 19 20 21 21 20 20 20 21 21 21 21 21 20 19 20 19 17 15 13 11 9 9 9 8 6 5 4 4 3 3 6 6 5 8 10 9 8 5 4 4 4 5 4 4 1 2 5 5 5 3 2 4 6 6 7 8 9 8 9 8 6 8 7 5 4 4 2 2 2 1 2 2 2 2 3 2 3 3 4 3 3 3 2 2 1 2 2
18 19 19 20 21 21 20 20 20 20 21 21 21 20 19 19 19 18 16 13 11 9 9 9 8 7 5 4 4 3 4 4 4 6 10 10 9 7 5 3 3 3 4 4 4 3 5 8 5 5 6 5 5 6 7 8 8 8 8 7 7 8 7 6 4 4 3 2 2 3 2 1 1 1 2 1 2 3 3 4 4 4 3 3 2 2 2 2
19 19 19 20 21 20 20 19 19 20 20 20 21 20 19 18 18 18 16 13 10 9 9 9 8 7 5 4 4 3 3 4 5 8 9 9 8 7 4 3 3 3 3 4 6 8 9 9 7 6 9 9 7 7 9 11 8 6 8 8 8 8 6 5 4 2 3 2 2 3 2 2 1 1 1 1 3 3 3 4 4 4 3 3 2 2 2 2
19 19 20 20 20 20 20 19 19 19 20 20 20 20 19 18 18 18 16 14 11 9 9 8 8 7 5 5 5 5 5 4 6 8 7 7 7 5 4 3 2 2 4 6 7 10 11 10 10 8 7 8 8 8 9 10 9 8 8 8 7 7 6 5 3 2 3 2 2 2 2 2 3 2 2 2 2 2 3 4 4 4 4 3 3 3 3 3
19 20 20 20 20 20 20 19 19 19 19 19 19 20 19 18 18 17 16 14 11 9 8 8 7 7 6 5 5 5 5 5 6 7 6 6 5 4 3 3 2 2 4 8 9 12 12 10 10 9 6 8 9 8 6 5 7 7 7 7 6 5 5 4 3 3 3 3 2 2 3 4 4 4 3 3 2 2 3 4 4 4 4 4 3 3 4 4
20 20 20 21 21 20 20 20 19 18 19 19 19 19 18 17 17 17 16 14 12 10 8 7 7 6 5 4 5 5 5 5 5 5 6 6 5 4 3 4 3 3 5 9 11 13 13 12 12 9 7 9 9 7 5 4 6 6 6 6 6 5 4 3 4 4 4 4 3 3 4 5 5 4 4 3 3 4 4 5 5 5 5 5 5 5 6 5
20 19 20 21 21 20 20 20 19 18 18 18 18 18 18 17 17 17 16 15 12 10 8 7 6 6 5 4 5 6 6 5 5 5 5 5 4 3 2 3 2 4 7 10 12 13 13 14 12 9 8 9 8 7 5 5 6 6 7 7 6 5 5 5 6 5 5 5 4 4 4 5 5 5 6 5 5 6 6 6 6 5 6 6 6 6 6 6
20 19 20 20 21 21 20 20 19 18 18 18 18 17 17 17 17 17 16 15 12 10 8 6 6 6 6 5 5 6 6 4 5 5 5 5 5 3 1 2 2 5 10 12 13 13 12 12 9 7 7 6 6 6 5 5 6 7 8 8 6 6 7 7 7 6 6 6 6 6 5 6 6 6 7 8 8 8 8 8 7 6 6 6 6 6 6 7
20 19 19 20 20 20 20 20 19 18 17 17 17 17 17 17 17 17 16 15 12 10 8 6 5 5 6 7 6 6 5 5 5 4 4 6 5 5 4 2 3 6 10 11 11 10 10 9 8 6 6 5 5 5 6 8 8 10 10 8 6 7 9 8 7 7 7 7 8 7 6 6 7 7 8 9 9 9 8 8 8 8 7 7 7 7 8 8
19 20 19 19 20 20 20 20 18 18 17 17 17 17 17 17 17 17 17 15 12 10 7 5 5 5 6 7 6 6 5 5 4 4 5 6 7 8 7 4 4 7 9 9 9 8 7 7 7 6 6 6 7 6 8 10 9 9 10 10 9 8 9 9 9 9 9 9 8 7 7 7 7 8 8 9 9 9 8 8 8 8 8 8 8 8 8 9
19 20 19 19 19 20 20 19 18 17 17 17 17 17 16 16 17 17 17 15 12 10 7 5 5 6 7 7 6 5 4 4 4 4 5 6 8 9 7 5 6 8 8 9 9 7 7 7 6 7 7 7 8 9 9 10 10 9 9 10 9 9 9 9 9 10 9 9 8 7 8 9 8 8 9 9 9 9 8 8 8 8 8 8 8 8 9 10
18 20 19 19 19 19 19 19 18 17 17 17 17 17 16 16 17 17 17 15 12 10 8 6 6 6 8 7 5 4 3 4 4 5 6 7 8 7 6 7 6 6 6 7 7 5 5 7 7 8 8 7 9 9 8 8 9 10 10 11 10 10 10 10 9 9 9 9 9 8 8 9 9 9 9 9 9 9 8 8 8 8 8 8 9 10 10 10
18 19 19 19 18 18 19 19 18 17 16 16 17 16 16 16 16 16 16 15 12 10 8 7 6 6 7 6 5 3 3 3 4 6 8 7 7 6 6 6 7 8 6 5 4 3 7 9 10 10 9 11 11 9 8 9 10 10 9 11 12 10 10 10 9 9 10 10 9 8 8 8 9 10 11 9 9 10 9 9 8 7 8 9 10 11 11 10
18 19 20 19 18 18 18 19 18 18 17 16 16 16 16 16 16 16 16 15 12 11 9 6 6 6 6 6 5 3 3 3 4 7 7 4 5 6 5 4 7 9 8 4 3 6 10 11 11 12 11 12 11 11 10 10 11 11 9 12 13 10 10 11 9 8 10 10 8 7 7 8 8 9 11 11 10 9 8 8 7 7 9 10 11 11 10 10
17 19 19 19 18 17 17 18 18 18 17 16 15 15 16 16 16 16 16 15 13 11 10 8 7 5 6 7 4 3 3 3 4 6 5 5 5 6 4 2 5 8 6 4 4 5 9 11 10 10 11 10 10 10 11 11 12 12 11 12 12 11 11 12 9 8 9 9 9 8 8 8 8 9 10 10 9 8 7 7 7 8 9 10 10 10 10 10
17 18 19 19 18 17 17 17 17 18 17 16 15 15 15 15 16 16 15 15 13 11 11 10 10 7 7 9 5 3 3 3 5 5 3 5 6 5 4 4 6 9 7 6 9 7 6 11 11 11 12 11 9 10 11 11 11 12 12 12 12 12 10 10 10 9 9 10 10 8 8 8 8 8 8 8 8 7 7 7 7 8 9 9 10 10 9 10
16 17 19 19 18 17 16 16 17 17 17 16 15 14 15 14 15 15 15 14 12 11 9 9 11 7 3 6 5 4 4 4 4 4 4 4 6 5 4 6 9 9 8 8 11 9 8 11 10 11 12 10 8 9 11 10 9 10 11 11 11 11 9 8 10 11 11 11 9 8 9 8 8 8 8 8 8 7 8 8 8 8 8 9 9 9 9 10
15 16 17 18 18 16 16 15 16 17 17 16 15 14 14 14 14 14 14 14 14 14 11 8 9 5 1 5 5 4 3 3 3 6 6 4 5 5 4 10 12 10 10 10 11 10 11 10 9 10 11 9 8 10 10 7 8 9 9 9 10 9 9 9 10 10 11 10 9 9 9 9 8 8 8 9 8 8 8 8 8 9 9 9 9 9 9 9
14 15 17 18 18 17 15 15 15 16 16 16 15 13 13 13 13 13 13 14 15 15 11 7 8 6 2 4 5 4 3 2 5 9 8 5 5 7 7 11 13 11 11 11 10 11 11 9 8 9 10 9 8 8 7 6 7 8 8 8 9 8 8 10 10 10 11 10 9 9 9 9 9 9 8 8 9 9 7 7 9 9 8 8 8 9 8 8
14 15 16 17 17 17 15 14 14 15 15 16 15 13 13 12 12 13 13 13 14 13 11 9 10 8 4 5 5 4 3 4 5 7 7 5 7 7 6 9 12 13 13 11 11 10 9 8 8 8 7 6 7 6 7 6 5 7 8 8 7 8 9 10 10 10 10 9 7 8 9 10 9 9 8 8 9 8 7 7 8 7 8 7 7 8 8 8
13 14 15 16 17 16 15 14 13 13 15 15 14 13 12 12 11 12 12 12 12 11 11 11 10 9 5 4 3 3 3 8 6 10 8 6 6 6 7 10 13 15 15 13 13 10 8 7 7 6 5 6 8 6 6 6 3 4 7 7 7 8 10 10 10 10 10 8 7 7 9 9 9 9 8 8 10 8 8 9 7 6 7 7 7 7 7 7
13 13 14 15 16 16 16 14 12 12 14 14 14 12 11 11 11 11 11 11 10 10 11 11 10 9 7 4 4 4 3 8 10 6 8 3 4 7 9 11 13 14 14 14 12 10 8 7 6 6 7 9 8 5 4 6 4 4 6 6 7 8 9 9 10 10 9 7 6 8 9 9 8 8 8 7 8 8 7 8 6 5 6 7 7 7 6 6
13 12 13 13 14 15 15 14 12 12 13 14 13 12 11 10 10 10 11 11 11 12 12 11 10 11 9 5 3 3 3 6 7 7 5 3 3 5 8 9 10 11 13 13 12 10 8 6 7 9 9 8 6 5 5 5 7 6 5 6 8 8 7 7 8 7 7 7 7 7 8 8 7 6 6 6 7 7 7 6 5 5 6 6 6 6 6 6
13 12 12 12 13 14 15 14 13 11 12 13 12 12 11 10 9 9 10 11 11 12 12 11 10 10 8 4 0 2 6 4 2 2 1 3 3 4 4 5 8 10 12 12 11 10 9 9 9 9 9 7 5 8 6 5 8 8 6 6 7 7 7 7 8 6 5 7 8 6 5 7 6 6 6 6 6 6 6 6 5 5 6 6 6 6 6 7
13 12 11 11 12 13 14 14 13 11 11 12 12 12 11 10 9 8 9 9 8 10 11 10 9 9 8 3 2 1 6 2 3 2 3 3 4 5 4 5 9 10 11 13 12 10 11 12 11 10 9 6 5 7 6 5 8 8 6 5 3 3 5 7 8 6 5 6 6 6 5 6 6 6 6 4 5 6 5 5 5 6 6 6 5 5 6 7
13 13 11 11 11 11 13 13 13 12 10 10 11 11 11 10 8 7 8 7 7 9 11 10 10 9 8 3 2 2 3 5 1 2 3 4 3 4 5 6 8 9 10 12 11 11 11 12 13 11 10 6 4 5 5 5 6 7 6 4 3 5 8 9 7 4 5 7 7 7 7 6 6 7 5 3 4 5 5 4 5 5 5 5 5 5 6 7
13 13 11 10 10 10 11 12 13 12 10 9 10 11 11 9 7 7 7 7 7 9 10 10 9 8 7 3 1 2 2 5 2 2 3 4 4 5 5 4 6 6 7 7 8 11 12 12 11 10 9 6 2 4 5 3 4 5 4 5 4 7 9 9 6 4 5 6 7 8 7 6 6 6 5 4 4 4 5 5 4 4 4 4 5 6 6 7
13 13 12 10 9 9 10 11 12 12 10 9 9 10 10 9 7 6 5 5 6 8 9 9 8 7 7 3 1 2 3 5 1 3 2 2 4 5 5 5 7 2 3 8 10 10 11 10 10 11 10 5 2 3 4 4 3 2 3 5 4 6 10 10 8 6 7 7 7 7 6 6 7 6 5 5 4 3 4 4 3 3 4 4 5 6 7 7
14 14 12 10 9 8 9 10 11 12 11 9 8 9 9 9 8 6 4 4 4 7 8 7 8 8 8 5 1 2 5 4 5 3 0 1 3 5 4 4 5 3 3 9 11 8 10 10 11 13 12 10 6 2 2 3 4 3 4 6 3 6 10 11 9 7 6 7 6 7 9 8 7 6 4 5 5 4 3 3 2 4 4 5 6 6 7 8
15 14 13 11 9 7 8 9 9 11 12 10 8 8 8 9 8 7 5 2 2 6 8 7 7 6 7 6 3 3 4 8 5 9 2 1 2 5 4 2 3 6 7 8 8 9 11 11 11 14 13 12 9 3 1 1 3 3 5 5 4 6 10 10 10 7 4 6 6 7 11 8 5 5 4 4 4 3 3 2 1 3 4 5 6 7 7 8
17 15 14 12 10 8 7 7 8 10 12 11 8 7 8 8 7 7 6 3 1 3 5 6 6 5 6 4 6 1 4 7 10 11 4 3 0 2 4 7 5 8 8 9 10 13 14 7 8 13 13 12 11 5 1 2 2 1 3 6 6 8 10 10 10 8 5 6 7 5 8 6 4 5 4 4 4 2 2 2 2 4 5 5 6 7 8 9
19 16 15 13 11 10 8 7 7 9 11 11 8 6 7 7 6 7 5 2 2 3 3 4 5 5 5 2 3 4 10 6 9 8 5 5 2 2 7 8 6 6 5 6 8 11 12 7 6 12 12 10 10 6 4 1 2 4 1 3 6 6 9 9 9 9 6 7 9 7 6 4 4 6 3 2 3 3 2 2 2 3 5 5 6 7 7 7
20 18 16 14 13 11 9 7 7 8 10 11 9 6 6 7 6 6 3 1 2 4 3 3 4 4 5 3 0 4 6 8 10 7 6 7 5 4 7 6 3 4 3 3 5 8 8 9 9 9 8 8 9 7 6 5 4 6 5 3 5 8 10 8 6 8 7 8 10 9 7 4 3 2 1 1 2 3 2 3 3 3 4 6 7 7 7 7
21 19 17 16 14 12 11 8 7 7 9 10 9 7 6 7 6 5 3 2 3 4 4 3 3 4 4 2 1 4 9 10 9 6 5 9 7 4 5 4 1 3 5 3 5 7 8 10 9 7 6 8 9 5 4 5 6 6 6 4 5 9 11 8 5 7 10 10 9 8 8 7 5 1 1 2 3 4 4 3 4 4 5 7 8 8 8 7
22 21 19 17 16 14 13 10 8 7 8 10 10 8 7 8 8 7 5 5 5 5 4 3 4 4 2 2 1 3 7 8 7 4 4 8 9 6 6 5 5 5 5 3 6 7 6 8 7 7 8 8 8 5 5 6 6 5 6 7 6 7 7 6 4 7 10 10 9 9 10 9 8 4 1 3 3 5 6 4 4 5 5 7 8 8 8 7
23 22 20 19 17 15 14 12 9 8 8 9 10 10 8 8 8 7 6 7 8 6 5 5 5 4 3 4 5 6 5 3 5 5 4 6 7 7 6 5 6 9 7 5 5 5 3 4 5 6 8 9 8 8 6 7 7 6 7 7 6 6 7 7 7 7 9 10 9 8 8 8 7 5 3 3 2 6 8 4 4 4 5 7 7 7 7 7
24 24 22 20 19 17 16 14 12 10 9 10 11 11 10 9 8 7 7 8 7 7 7 8 7 6 7 7 7 8 7 7 8 6 4 7 8 7 7 6 6 8 10 8 5 6 7 3 5 9 9 10 10 8 6 6 8 6 4 4 4 5 7 9 9 8 9 11 10 9 9 10 9 7 5 3 2 6 9 6 4 4 6 8 8 7 7 7
25 25 23 22 20 19 18 16 14 11 10 11 11 12 12 10 9 8 7 8 8 8 10 10 9 9 9 9 7 6 7 7 9 10 8 9 11 9 10 9 6 4 9 10 6 8 10 6 8 11 9 10 10 7 4 4 8 8 6 6 7 5 6 10 10 9 11 12 11 9 10 11 10 10 10 8 8 9 9 7 7 6 6 8 8 8 7 7
27 25 24 24 22 20 19 18 15 14 12 11 13 13 11 11 10 9 8 8 8 9 11 11 9 10 11 10 9 9 7 7 9 13 11 10 12 11 11 12 8 5 7 9 7 9 10 8 10 11 10 10 9 6 5 4 6 9 9 10 10 9 8 8 10 10 11 11 10 9 9 9 9 11 12 12 11 10 9 9 10 9 8 8 8 8 8 7
28 26 24 25 24 21 21 19 17 16 14 13 15 13 11 11 11 9 9 9 10 11 12 11 11 12 13 12 11 10 9 8 9 11 10 9 11 9 10 14 13 11 11 8 9 13 12 10 11 11 11 11 9 8 7 7 8 7 8 9 9 9 9 9 11 12 11 11 10 10 11 9 8 10 12 13 12 8 8 12 14 12 9 8 8 9 8 8
29 26 25 26 25 22 22 21 19 18 17 17 16 13 12 13 12 10 10 10 10 12 12 12 13 14 14 15 14 11 10 10 9 10 10 9 10 8 6 10 12 14 14 11 13 15 12 11 13 12 11 11 12 11 9 9 11 8 7 9 7 7 10 10 11 13 13 11 9 10 14 13 12 12 13 14 14 10 10 14 15 13 11 10 9 9 8 8
30 28 27 27 26 24 23 22 21 20 20 20 17 14 14 14 13 13 12 11 11 12 13 12 14 15 16 17 18 16 14 12 12 14 14 13 12 10 9 11 8 9 12 15 19 17 11 13 17 14 11 9 11 12 11 10 11 8 7 9 9 9 11 11 12 12 14 14 12 12 14 13 13 14 13 13 14 12 11 15 16 14 14 13 12 10 9 8
31 30 28 28 27 25 25 24 23 22 22 21 19 16 16 15 14 15 14 13 13 13 13 12 13 16 17 18 19 19 16 15 15 17 16 15 16 15 9 11 10 9 13 16 18 16 14 17 19 17 13 11 11 12 12 12 12 10 9 10 10 9 10 12 13 12 13 15 15 15 13 13 14 15 14 14 14 11 11 15 16 15 14 14 13 12 10 10
31 31 30 30 29 27 26 25 24 23 24 23 21 18 17 16 16 17 16 15 15 14 13 12 14 17 17 17 19 18 18 18 18 18 17 18 18 17 16 13 14 13 16 19 19 18 18 19 19 19 18 16 16 15 14 15 14 13 12 12 11 11 12 14 14 13 14 15 16 16 15 15 16 17 15 15 15 14 13 16 17 16 14 13 12 11 11 10
32 33 33 31 29 27 27 27 26 25 25 25 22 20 19 18 18 18 18 16 15 15 14 12 15 17 16 16 17 18 19 20 19 18 19 20 20 18 18 16 16 16 17 20 21 21 22 21 21 22 21 20 19 19 18 18 16 14 14 14 14 14 15 17 16 16 17 17 17 18 18 17 18 20 20 19 19 17 15 17 19 19 17 13 10 9 11 10
34 34 33 31 30 29 29 28 27 26 26 26 24 22 20 19 19 20 19 18 17 16 14 14 15 17 17 18 19 20 21 21 21 21 21 21 23 23 20 16 14 16 18 20 22 23 25 25 24 23 23 23 23 22 20 21 18 16 16 16 16 15 17 20 20 18 19 19 18 19 19 18 18 21 23 22 20 19 18 18 19 21 20 15 11 9 10 10
36 35 33 32 32 32 30 27 27 27 27 27 26 24 22 20 20 22 21 20 19 17 15 16 17 17 18 19 21 21 21 21 22 23 22 23 24 25 23 21 19 21 22 21 22 24 25 26 26 25 25 25 26 23 21 22 21 20 20 18 15 13 15 21 22 18 16 17 18 20 21 20 19 21 23 22 20 21 22 20 18 20 19 16 13 11 10 9
37 35 33 33 34 34 30 28 29 29 29 28 27 26 24 22 22 24 24 22 21 19 17 17 17 18 19 20 21 22 22 23 24 24 24 25 26 25 24 24 24 26 25 22 21 23 24 24 24 24 25 25 24 23 22 22 23 24 23 21 18 17 19 22 21 18 18 20 21 22 21 20 21 22 23 23 22 20 21 21 20 21 19 15 14 13 11 9
37 35 35 36 36 35 32 30 30 30 29 29 28 27 26 24 24 25 25 24 23 21 20 19 19 20 20 21 21 21 22 24 24 23 23 24 24 23 24 25 25 27 27 25 23 24 25 23 21 23 26 25 24 25 24 25 27 27 22 20 21 22 20 19 19 20 22 22 22 23 21 20 22 24 24 25 24 21 22 22 22 24 23 17 14 15 12 9
38 37 37 37 37 36 33 32 32 31 30 30 29 28 27 26 26 27 27 26 25 23 22 22 20 18 19 21 21 20 20 20 21 21 21 19 18 18 21 24 26 27 27 27 26 26 26 24 22 25 28 27 25 26 26 28 29 26 22 20 20 21 22 22 22 23 23 22 22 22 22 23 24 25 26 26 22 20 22 22 20 23 25 21 17 16 13 9
Wind_Direction
3 360 358 359 1 3 4 4 4 3 4 4 3 5 5 2 2 4 7 12 17 18 19 21 24 25 19 16 5 14 25 25 30 27 27 33 34 49 75 80 76 76 76 82 85 94 94 70 41 28 56 40 37 57 360 336 339 330 329 335 329 328 343 12 17 1 13 16 354 343 342 336 333 338 343 346 350 9 25 20 15 4 353 14 12 4 8 11
5 2 360 359 1 3 5 6 5 3 4 4 4 5 5 3 2 4 8 14 19 20 19 20 23 24 21 19 9 18 23 24 28 16 21 35 34 47 72 81 75 71 70 74 76 95 105 66 24 5 28 11 25 44 360 350 1 357 354 349 348 7 8 20 30 17 27 15 348 360 348 341 340 340 349 360 9 14 39 57 52 42 31 58 83 46 41 24
6 4 2 1 2 3 5 6 6 4 3 4 4 5 6 4 3 4 8 14 20 21 19 21 24 26 26 22 12 16 23 28 26 18 31 34 29 41 64 77 77 67 52 46 44 14 2 40 45 40 38 322 3 26 9 1 11 14 5 353 2 29 24 22 26 30 42 27 6 49 24 356 354 360 11 4 11 28 53 69 80 90 86 99 118 107 46 34
7 6 4 3 3 3 5 6 6 4 3 4 3 5 8 6 4 5 7 13 20 20 20 23 26 29 29 27 22 22 35 35 30 35 36 29 24 33 53 76 76 53 34 18 357 347 20 24 21 36 21 355 12 27 23 12 7 11 7 5 15 23 28 29 32 46 62 56 35 60 68 45 12 24 41 12 38 52 57 72 86 107 116 103 93 92 41 30
7 7 5 5 5 4 4 5 6 4 3 4 3 5 8 7 5 6 7 12 18 20 20 23 25 29 29 33 31 22 41 47 43 43 33 23 23 26 45 77 75 46 2 344 352 4 20 13 352 4 10 10 19 16 23 18 353 348 7 14 17 17 25 35 40 68 86 85 57 59 74 83 74 51 87 90 58 55 53 68 85 104 117 108 77 64 54 43
4 7 6 5 6 4 3 4 5 4 3 5 5 5 7 6 5 7 9 10 15 18 19 22 22 27 29 37 40 32 41 44 46 46 30 20 22 24 47 76 75 33 337 351 10 10 7 3 2 7 4 12 26 23 28 19 349 348 10 18 20 17 24 34 42 70 82 87 75 78 87 87 87 76 78 77 58 67 80 77 88 97 98 98 82 68 76 79
0 7 6 5 5 4 2 2 4 5 4 6 6 5 5 4 4 7 10 9 12 14 16 19 16 25 33 43 47 40 42 37 43 44 27 25 28 37 63 86 75 352 352 12 16 15 11 7 11 14 17 28 37 37 32 24 6 7 15 19 23 23 26 35 49 65 71 68 59 75 86 84 81 72 74 85 82 83 90 91 94 97 98 96 90 84 85 87
356 5 6 5 5 3 2 1 3 4 3 6 7 6 4 3 4 7 10 10 10 9 14 16 13 24 34 50 49 41 47 34 33 40 27 23 26 44 76 89 63 360 17 23 17 23 23 16 11 8 20 36 43 41 28 30 31 25 20 19 26 32 31 45 64 70 66 59 51 52 68 79 83 85 87 93 97 93 89 91 93 95 96 96 97 99 101 106
352 3 7 5 4 2 1 1 2 3 2 5 7 7 5 2 3 6 9 11 9 8 13 12 13 22 26 39 30 33 48 30 16 32 24 15 22 38 79 94 52 13 35 31 19 22 24 18 11 11 26 36 42 37 27 28 32 32 29 27 29 36 42 54 65 69 65 60 58 66 73 81 87 94 94 95 97 97 99 95 94 93 89 94 101 105 111 113
349 0 7 5 3 2 1 2 2 1 1 3 7 7 5 3 3 5 9 11 12 12 15 13 17 23 22 23 20 35 49 22 8 27 15 1 10 14 37 90 38 24 42 35 20 19 25 21 10 23 38 41 47 43 40 41 41 42 40 37 33 40 50 60 72 74 69 63 68 77 77 83 88 88 88 91 93 96 101 97 93 94 94 99 105 108 108 103
348 357 6 5 3 1 0 3 2 359 359 1 5 7 6 3 3 6 9 13 14 16 20 18 17 25 28 24 26 44 44 15 8 19 5 352 359 5 1 25 28 37 42 29 22 23 29 26 18 33 44 39 44 48 55 53 50 51 49 48 46 52 58 65 79 83 79 75 76 82 83 87 90 91 90 90 90 91 93 94 95 97 100 106 105 104 100 95
348 353 6 6 2 0 0 2 2 359 358 359 2 6 6 4 4 6 9 13 17 21 24 20 18 30 36 34 37 47 35 3 360 10 360 351 359 6 0 355 9 28 29 23 27 26 21 23 28 40 34 32 36 37 53 60 64 66 58 53 51 54 63 67 73 78 79 77 80 88 90 92 91 90 91 90 89 86 86 91 96 98 101 104 101 98 96 96
349 351 4 8 2 360 360 2 1 359 358 358 360 4 6 5 5 7 10 14 19 25 26 23 26 29 33 37 39 41 25 346 350 7 358 2 12 9 1 352 2 23 28 26 20 8 13 20 38 48 28 24 39 39 55 65 65 66 59 57 58 59 69 75 75 80 83 81 82 89 90 93 96 93 90 89 90 88 90 95 98 101 101 100 100 99 100 103
350 350 1 10 4 358 359 1 1 359 358 358 359 2 5 5 6 7 10 15 20 27 28 24 26 33 40 44 38 25 4 348 353 1 4 18 21 10 8 0 356 13 40 47 22 356 34 44 51 56 36 32 47 47 61 68 53 52 58 62 63 63 73 80 79 81 82 76 73 79 88 94 100 100 96 93 96 98 101 106 107 106 103 104 105 105 107 107
350 350 358 10 8 359 359 0 360 359 358 359 358 1 3 4 7 7 11 16 19 24 27 26 18 21 36 38 33 7 338 354 356 11 18 15 9 5 15 4 344 347 7 56 70 54 60 57 53 54 47 48 57 61 67 68 53 49 56 63 63 60 67 72 75 82 81 74 71 76 84 93 100 102 103 104 107 109 111 113 114 109 105 107 108 108 109 106
349 350 355 8 11 1 358 359 359 358 358 360 358 359 1 3 7 7 11 16 19 21 21 29 20 21 44 35 20 347 329 357 1 30 32 353 358 9 8 350 335 347 352 5 69 80 65 54 53 50 44 47 58 67 64 63 61 54 46 53 62 63 63 67 68 76 82 81 80 81 83 91 98 101 108 111 109 109 111 113 112 108 106 107 109 111 108 103
349 350 352 3 12 4 359 359 358 357 357 0 359 358 360 3 7 7 11 16 20 20 16 19 8 14 44 27 6 329 337 6 6 39 34 325 357 9 351 339 332 345 337 327 10 59 61 52 57 59 52 49 55 66 63 56 60 60 56 57 62 62 64 73 74 69 81 89 86 87 90 91 93 96 101 104 104 103 102 104 105 105 107 109 111 109 106 100
348 349 350 359 10 7 0 359 357 356 356 359 0 358 359 3 6 7 11 15 18 20 20 16 2 6 21 7 6 4 356 15 15 53 43 333 359 359 338 355 355 356 340 343 3 1 48 55 57 64 64 55 44 55 60 53 53 54 58 61 60 60 62 78 90 86 81 78 75 82 89 89 92 94 96 98 100 98 95 98 105 108 110 112 111 109 103 94
347 347 349 354 7 9 2 359 357 355 354 358 2 359 358 2 5 6 8 13 16 18 23 17 10 27 32 348 355 359 359 19 19 71 70 358 359 347 353 15 10 14 5 7 18 22 63 64 55 62 68 64 48 51 53 51 59 60 60 60 56 60 64 74 88 91 87 80 76 83 87 89 94 97 102 105 102 100 102 105 107 110 114 114 110 106 98 90
346 346 348 350 2 8 4 360 356 354 354 356 2 1 357 360 6 7 7 10 13 15 18 11 7 25 17 336 353 3 8 27 43 70 52 4 356 340 17 33 16 21 24 23 38 48 60 56 45 52 59 61 54 51 51 50 59 64 69 66 58 60 64 69 77 84 89 90 85 85 89 90 93 98 104 107 107 107 109 111 112 113 115 113 108 101 94 89
345 345 347 349 358 6 5 2 356 353 352 355 1 3 356 358 7 6 5 9 12 17 17 6 355 356 349 347 5 17 9 38 61 59 39 359 357 346 353 13 10 18 18 18 40 53 58 54 41 46 50 54 56 52 54 55 58 67 73 66 61 63 64 68 77 82 83 82 80 86 93 92 92 96 100 104 106 109 113 115 114 114 114 110 105 101 93 86
343 344 346 348 354 3 4 2 358 352 351 354 359 4 358 356 5 5 6 8 12 18 16 14 1 345 357 5 9 28 38 83 60 21 30 23 350 356 6 0 11 24 15 20 45 51 56 55 48 56 57 58 63 55 50 48 54 80 86 80 77 78 72 68 71 79 82 87 98 103 97 91 93 97 101 103 101 107 119 115 110 111 109 103 99 96 88 80
341 342 345 348 351 360 2 1 1 352 349 352 357 4 359 354 1 4 6 5 10 17 16 22 5 342 6 18 13 31 37 88 70 326 345 37 351 2 26 7 25 36 26 33 48 45 43 44 48 57 52 54 55 51 65 67 54 84 96 97 96 87 81 77 74 78 84 92 105 104 94 90 95 99 99 98 102 111 114 106 106 108 104 101 97 87 79 73
337 340 344 347 349 357 359 359 1 353 348 350 355 2 358 354 359 1 6 2 5 19 19 22 9 358 31 41 20 22 354 93 109 268 295 36 6 355 7 6 29 43 36 35 40 39 33 26 24 21 27 48 48 37 70 86 80 92 103 100 99 96 95 97 92 87 90 92 92 93 94 93 92 96 100 104 109 110 103 104 111 110 102 100 95 84 71 65
331 336 341 346 348 353 356 356 358 355 347 346 353 359 357 356 356 358 5 1 3 17 17 17 13 6 24 38 19 44 34 59 119 199 258 22 32 3 9 6 16 35 42 31 21 27 22 5 8 14 29 50 61 66 70 88 95 97 102 104 107 107 105 103 89 80 90 90 87 90 93 96 95 97 101 100 101 100 97 103 107 95 87 81 76 72 64 56
324 332 338 343 347 350 353 353 353 354 347 344 350 355 357 357 353 357 2 359 2 12 12 13 16 6 10 39 60 96 80 36 335 207 351 26 52 32 16 2 10 34 46 28 15 22 11 4 18 20 28 42 65 84 91 106 104 104 105 106 116 122 120 102 74 63 83 89 93 95 83 88 100 99 92 91 98 103 102 103 100 85 74 71 65 54 47 44
317 326 333 339 344 347 351 349 347 351 349 344 345 351 357 355 352 356 355 353 356 5 12 13 14 9 5 42 168 86 98 128 313 24 56 36 53 35 5 5 24 36 38 30 24 22 8 10 22 11 15 44 68 80 104 122 103 108 114 105 114 122 101 80 59 52 64 73 89 100 89 89 102 95 81 88 109 110 103 99 102 91 76 74 66 47 41 39
310 318 326 333 340 344 347 347 343 345 350 345 342 348 354 353 350 352 353 356 354 359 11 12 7 3 358 24 195 262 127 134 76 67 62 37 37 30 17 5 21 28 28 31 23 13 12 18 21 9 16 51 73 69 101 131 108 108 105 82 23 6 31 33 22 40 70 76 89 99 100 96 95 93 83 85 105 103 97 87 90 87 73 65 51 38 38 36
302 309 318 326 334 340 342 344 339 338 345 345 341 344 348 349 347 346 349 356 355 356 5 7 2 354 353 13 284 303 159 149 100 78 66 55 52 43 49 26 22 21 3 13 12 6 10 13 16 21 31 52 91 90 100 106 91 96 81 61 26 9 27 33 29 56 77 78 87 94 106 104 90 88 82 77 88 94 94 85 78 68 55 51 32 22 26 28
296 301 310 317 325 334 335 339 336 332 337 342 340 341 342 344 342 340 347 357 358 354 357 2 360 356 358 7 8 29 138 175 101 56 58 66 80 67 71 58 43 41 305 348 351 355 5 7 15 23 23 30 59 104 115 104 87 87 50 57 42 22 36 44 42 52 67 75 82 83 96 111 103 90 73 68 79 99 96 82 63 37 34 35 20 12 11 13
290 294 301 307 314 323 328 332 332 326 329 335 336 336 336 339 339 337 347 12 5 348 352 359 359 359 357 5 29 28 72 74 350 348 50 55 84 75 64 60 32 9 1 351 341 354 11 1 11 17 9 10 20 47 113 112 128 133 70 62 57 43 42 41 37 33 53 80 96 87 78 85 97 96 80 58 64 89 90 71 37 12 12 14 5 2 2 3
285 287 293 298 302 310 318 323 324 322 323 326 331 333 331 333 333 329 329 356 347 338 346 346 353 3 350 14 100 220 81 90 273 275 244 186 75 57 18 320 339 3 14 360 348 3 1 352 12 14 1 6 16 34 74 90 146 135 106 91 73 65 51 39 44 35 25 55 72 89 83 77 81 79 65 41 47 74 67 53 30 358 357 4 356 353 358 358
282 282 286 289 291 296 305 312 316 318 317 318 325 327 326 329 329 320 321 339 311 310 334 329 342 4 337 31 106 273 17 116 212 244 229 217 165 63 294 292 339 7 4 2 358 345 337 346 28 7 356 4 1 355 55 155 171 44 130 115 82 75 63 48 51 40 18 37 38 63 84 87 93 78 60 29 27 45 32 14 8 348 341 354 356 353 357 356
279 278 279 282 283 285 290 300 306 312 312 312 318 322 321 322 319 311 309 333 314 276 284 296 312 335 317 346 97 306 324 312 246 243 229 228 227 217 250 274 332 5 357 355 339 318 326 351 12 350 346 357 352 358 30 280 284 347 350 85 49 45 49 47 49 38 28 40 32 37 61 61 75 80 66 8 1 353 352 339 331 335 333 343 353 354 356 355
276 275 275 276 277 277 280 286 294 302 305 306 310 315 313 304 302 312 301 251 306 290 262 262 274 297 302 306 181 197 226 258 253 234 226 237 233 230 251 265 324 351 337 349 311 294 323 345 346 340 332 343 353 8 11 331 335 13 12 32 20 12 22 26 31 31 37 46 39 44 54 28 22 82 110 320 330 323 330 320 313 323 331 337 344 350 353 353
273 272 272 272 272 271 273 275 280 290 296 300 305 303 301 295 287 307 312 242 261 262 244 253 258 263 281 300 68 162 198 224 233 211 213 246 247 223 237 240 208 297 296 300 294 298 324 326 330 351 338 343 358 347 336 348 359 11 10 24 23 12 20 24 5 10 27 40 34 31 37 23 12 31 236 272 282 293 300 304 322 336 337 336 339 346 349 348
271 270 269 269 268 267 266 267 267 275 285 292 298 294 289 291 287 298 302 265 261 266 243 225 232 231 272 310 297 208 214 223 234 220 201 238 247 225 224 229 214 244 265 265 278 294 316 306 316 3 349 341 355 331 317 359 4 356 6 21 21 5 12 27 6 349 6 21 17 16 28 28 24 29 301 260 253 281 295 307 334 339 331 324 326 337 343 340
269 267 266 265 265 263 262 263 260 264 275 283 291 291 282 285 288 290 286 271 270 274 242 210 224 211 184 238 236 202 196 222 248 240 209 222 228 213 216 231 243 250 247 251 281 290 295 307 310 327 331 331 343 340 336 355 358 359 9 11 6 0 357 6 6 343 347 0 359 9 28 19 9 9 325 290 258 278 287 306 349 342 312 300 305 320 330 331
268 265 265 263 261 259 258 258 256 255 265 274 282 284 278 282 290 286 279 271 264 261 244 225 228 221 207 218 212 192 201 234 255 257 238 233 225 209 213 223 234 255 259 252 254 264 265 273 272 282 308 325 330 335 338 347 342 336 355 352 339 353 349 346 350 341 341 354 355 360 11 358 351 5 356 346 342 295 286 296 323 315 293 288 296 311 318 324
266 263 263 262 259 258 257 255 256 253 254 265 274 276 276 281 286 281 275 269 257 245 241 235 225 214 217 230 226 210 200 211 253 267 256 255 254 233 232 240 223 231 268 261 244 262 270 252 246 268 296 313 318 320 305 326 328 311 317 330 311 307 335 338 337 337 339 347 355 359 354 342 344 356 350 346 348 322 297 292 294 288 287 291 295 302 308 316
264 262 262 261 257 255 255 253 253 251 249 259 265 268 275 277 274 275 275 269 256 243 240 242 234 212 211 222 222 224 219 200 229 246 243 260 270 256 246 240 209 190 265 270 249 251 267 268 263 273 289 297 302 297 283 307 317 304 308 318 311 307 322 331 329 334 336 333 340 343 331 327 339 342 334 333 336 321 304 302 296 290 290 292 295 301 305 308
262 260 260 260 256 253 253 252 251 250 250 254 257 261 272 272 269 275 277 266 254 249 245 238 231 222 218 222 223 228 235 224 223 232 232 247 260 261 253 239 227 228 246 260 256 250 259 274 276 278 282 285 285 279 285 297 293 290 291 297 307 311 317 329 328 328 329 328 328 317 308 318 333 327 322 319 319 319 313 306 299 293 292 292 290 292 293 292
260 258 257 257 255 252 251 252 250 249 248 248 251 259 265 267 271 272 269 266 257 253 252 238 227 227 225 226 232 234 234 236 238 227 211 226 257 272 267 247 241 243 242 242 248 252 259 269 271 273 278 292 296 281 274 285 288 287 282 285 296 303 310 318 312 310 319 321 309 297 303 315 321 322 324 315 309 317 316 306 303 300 298 295 285 280 284 288
257 255 254 254 253 251 250 250 249 247 246 248 250 255 257 261 268 268 265 268 265 256 254 242 228 228 227 225 230 235 235 238 241 227 204 199 220 235 259 273 259 231 237 244 246 250 258 263 267 270 271 289 297 279 268 284 297 299 299 301 300 293 297 299 295 301 312 309 299 296 305 313 314 316 319 309 302 312 317 314 316 311 300 294 287 284 287 290
255 253 252 252 251 249 248 248 248 247 247 247 248 249 253 256 261 266 266 266 264 261 259 246 232 230 228 225 228 233 237 237 235 236 231 219 207 195 215 271 266 218 227 247 251 252 253 255 263 270 265 262 270 271 269 273 284 298 311 309 297 286 281 279 282 289 292 293 297 299 302 306 305 303 305 305 304 311 315 311 313 314 305 298 297 299 300 298
252 251 250 250 249 248 248 248 248 248 247 246 246 247 250 254 257 260 263 262 261 262 261 248 237 235 230 229 231 231 233 237 234 236 241 239 229 208 200 231 255 241 240 254 258 257 254 254 259 265 265 264 267 271 271 268 273 284 288 285 285 291 290 282 284 287 283 285 293 298 299 302 303 300 300 304 304 307 313 308 306 306 302 303 311 311 306 300
249 249 248 249 249 250 250 248 246 246 247 247 246 246 247 251 255 256 257 259 259 259 260 251 241 240 235 232 235 232 231 235 236 234 236 237 239 234 227 241 263 258 248 252 256 256 256 254 254 257 261 266 266 265 265 270 274 272 275 283 286 291 294 290 290 292 286 284 291 296 295 299 305 305 302 304 305 308 313 310 306 302 299 307 320 313 301 294
247 246 246 247 248 248 248 248 248 247 248 249 248 247 246 247 252 256 256 256 256 256 256 251 243 240 236 231 232 231 230 232 233 232 234 236 237 239 240 246 259 260 254 252 253 255 256 255 254 254 256 260 261 262 265 271 275 273 275 280 283 293 303 295 290 291 286 284 288 291 293 299 306 302 298 299 302 303 304 303 302 302 304 308 310 297 295 294
244 245 245 244 246 247 248 250 250 248 247 247 247 247 246 245 250 256 255 253 255 256 251 247 244 240 235 233 235 234 231 233 235 234 234 235 236 239 239 239 244 253 257 255 252 255 258 259 257 255 253 255 257 259 262 265 269 270 267 265 267 276 281 277 278 283 280 280 284 286 291 301 302 294 291 294 296 298 301 304 305 305 305 301 294 289 292 291
242 244 244 243 245 246 246 246 247 247 247 247 246 247 247 246 249 253 254 253 254 254 250 247 245 241 235 232 235 237 235 234 235 235 236 238 240 242 243 244 247 251 257 260 258 256 257 259 261 261 260 259 259 260 260 259 261 261 263 270 269 257 252 258 268 277 279 279 280 282 290 299 297 289 288 293 298 300 301 304 307 306 302 294 287 286 284 282
241 243 242 242 244 245 245 245 246 246 248 247 246 246 246 245 246 250 252 253 252 252 252 249 245 241 236 233 236 240 239 237 233 231 235 241 243 245 246 248 249 251 257 263 261 256 259 263 267 269 266 263 261 261 259 257 257 258 263 273 268 260 263 267 267 274 281 281 280 282 288 290 286 286 288 293 300 303 303 306 307 305 305 304 295 289 285 286
239 241 240 242 244 245 244 244 244 244 246 247 246 245 245 243 244 248 250 252 252 253 252 249 246 246 243 240 241 244 245 243 235 233 242 250 251 252 251 249 249 251 256 261 260 258 264 268 267 265 264 264 262 262 262 259 258 260 265 266 259 261 275 279 273 274 280 281 281 283 283 280 279 283 286 288 294 300 302 306 305 302 304 307 305 300 293 288
Height
5843 5841 5839 5838 5837 5836 5834 5833 5832 5830 5828 5827 5826 5825 5823 5822 5820 5819 5818 5817 5816 5814 5813 5813 5812 5811 5810 5810 5810 5809 5809 5809 5808 5808 5807 5806 5806 5805 5804 5803 5802 5802 5801 5801 5801 5801 5800 5799 5799 5799 5799 5798 5797 5796 5797 5796 5796 5796 5795 5794 5795 5795 5794 5793 5792 5792 5792 5792 5792 5793 5793 5793 5793 5792 5792 5792 5791 5792 5793 5793 5793 5793 5794 5795 5795 5795 5794 5794
5843 5841 5839 5838 5837 5836 5834 5833 5832 5830 5828 5827 5826 5825 5824 5822 5820 5819 5818 5817 5816 5815 5814 5813 5812 5811 5811 5810 5809 5809 5809 5809 5809 5809 5808 5807 5806 5805 5804 5804 5803 5802 5802 5802 5801 5801 5800 5798 5798 5799 5799 5798 5796 5796 5797 5796 5796 5795 5794 5794 5795 5795 5794 5793 5792 5792 5792 5792 5792 5793 5792 5792 5792 5792 5792 5792 5792 5792 5793 5794 5795 5794 5794 5795 5795 5795 5795 5794
5843 5842 5840 5838 5837 5836 5835 5833 5832 5830 5828 5827 5826 5825 5824 5822 5821 5820 5818 5817 5816 5815 5814 5813 5812 5811 5811 5810 5809 5809 5809 5809 5809 5809 5808 5807 5806 5806 5805 5804 5804 5803 5803 5802 5801 5801 5800 5799 5799 5800 5800 5799 5797 5797 5797 5796 5795 5795 5795 5794 5794 5795 5794 5793 5793 5792 5792 5792 5792 5792 5792 5792 5792 5792 5792 5792 5792 5793 5793 5794 5795 5795 5795 5795 5795 5796 5796 5795
5843 5842 5840 5839 5837 5836 5835 5833 5832 5830 5829 5827 5826 5825 5824 5822 5821 5820 5819 5818 5817 5815 5814 5813 5813 5812 5811 5810 5809 5809 5810 5809 5809 5809 5808 5807 5807 5806 5805 5805 5804 5804 5803 5802 5802 5801 5801 5801 5801 5801 5801 5800 5799 5798 5798 5796 5794 5795 5796 5794 5794 5794 5794 5793 5793 5793 5792 5792 5792 5792 5792 5792 5792 5792 5792 5793 5793 5793 5794 5794 5795 5795 5795 5795 5796 5796 5796 5796
5844 5842 5841 5839 5838 5836 5835 5833 5832 5830 5829 5827 5826 5825 5824 5823 5821 5820 5819 5818 5817 5815 5815 5814 5813 5812 5811 5810 5810 5810 5810 5810 5809 5809 5808 5808 5807 5807 5806 5805 5805 5804 5803 5803 5803 5803 5802 5802 5802 5802 5802 5801 5799 5797 5797 5795 5795 5796 5795 5794 5793 5793 5794 5794 5793 5793 5792 5792 5792 5792 5792 5792 5793 5793 5792 5793 5793 5794 5794 5795 5795 5796 5796 5796 5796 5797 5797 5797
5844 5842 5841 5839 5838 5836 5835 5834 5832 5830 5829 5828 5826 5825 5824 5823 5821 5820 5819 5818 5817 5816 5815 5814 5813 5812 5811 5810 5810 5810 5810 5810 5809 5809 5809 5809 5808 5807 5806 5806 5805 5805 5804 5804 5804 5803 5803 5803 5802 5802 5802 5800 5798 5797 5797 5796 5796 5796 5795 5795 5794 5794 5794 5793 5793 5793 5793 5793 5793 5792 5792 5792 5793 5793 5793 5793 5794 5794 5795 5796 5796 5796 5796 5797 5797 5798 5798 5798
5844 5843 5841 5840 5838 5837 5835 5834 5832 5831 5829 5828 5827 5825 5824 5823 5821 5820 5819 5818 5817 5816 5815 5814 5813 5812 5811 5811 5810 5810 5810 5810 5810 5810 5810 5809 5808 5808 5807 5806 5806 5805 5805 5805 5804 5804 5803 5803 5803 5803 5802 5800 5798 5798 5798 5798 5797 5797 5796 5795 5794 5794 5794 5793 5793 5793 5794 5794 5794 5793 5793 5793 5793 5793 5794 5794 5794 5795 5795 5796 5796 5797 5797 5797 5798 5798 5798 5799
5845 5843 5842 5840 5839 5837 5835 5834 5833 5831 5829 5828 5827 5825 5824 5823 5822 5820 5819 5818 5818 5816 5815 5814 5814 5813 5812 5811 5811 5811 5811 5811 5811 5810 5810 5809 5809 5808 5807 5807 5806 5805 5806 5805 5805 5804 5804 5803 5803 5803 5801 5799 5799 5799 5799 5798 5798 5797 5796 5796 5795 5794 5794 5794 5794 5794 5794 5794 5794 5794 5794 5794 5794 5794 5794 5795 5795 5795 5796 5796 5797 5798 5798 5798 5799 5799 5799 5800
5844 5844 5842 5840 5839 5837 5836 5834 5833 5831 5830 5828 5827 5826 5825 5823 5822 5821 5820 5819 5818 5817 5816 5815 5814 5813 5812 5812 5811 5811 5811 5811 5812 5811 5810 5809 5809 5808 5807 5807 5806 5806 5807 5806 5805 5805 5805 5804 5803 5803 5801 5800 5799 5800 5799 5798 5798 5798 5797 5796 5795 5794 5794 5795 5795 5795 5795 5795 5794 5794 5794 5795 5795 5795 5795 5795 5796 5796 5797 5797 5798 5798 5799 5799 5799 5800 5800 5801
5844 5844 5842 5841 5839 5837 5836 5835 5833 5832 5830 5829 5827 5826 5825 5824 5822 5821 5820 5819 5818 5817 5816 5815 5814 5814 5813 5812 5812 5812 5812 5812 5812 5811 5810 5810 5809 5809 5808 5808 5807 5807 5807 5807 5806 5806 5806 5805 5804 5803 5802 5801 5800 5800 5800 5798 5799 5799 5798 5797 5796 5795 5795 5796 5795 5795 5796 5796 5795 5795 5795 5796 5796 5796 5796 5797 5797 5797 5798 5798 5799 5799 5800 5800 5801 5801 5802 5803
5844 5843 5843 5841 5839 5838 5836 5835 5833 5832 5830 5829 5828 5826 5825 5824 5823 5822 5821 5820 5818 5817 5816 5815 5814 5814 5813 5813 5813 5813 5812 5812 5813 5811 5811 5810 5810 5810 5809 5809 5808 5808 5808 5808 5807 5807 5806 5805 5805 5804 5803 5802 5801 5801 5801 5800 5800 5800 5799 5798 5797 5797 5797 5796 5796 5796 5796 5796 5796 5797 5797 5797 5797 5798 5798 5798 5798 5799 5799 5799 5800 5800 5801 5801 5802 5802 5803 5804
5844 5843 5843 5841 5840 5838 5836 5835 5833 5832 5831 5829 5828 5827 5825 5824 5823 5822 5821 5820 5819 5818 5817 5816 5815 5815 5814 5813 5813 5813 5813 5813 5813 5812 5811 5811 5811 5811 5810 5810 5810 5809 5809 5809 5808 5807 5807 5806 5805 5804 5804 5803 5802 5802 5803 5802 5801 5800 5801 5799 5798 5798 5798 5797 5797 5797 5797 5797 5797 5797 5798 5799 5798 5799 5799 5800 5799 5799 5800 5800 5801 5801 5802 5803 5803 5803 5804 5805
5844 5843 5842 5841 5840 5838 5837 5835 5833 5832 5831 5829 5828 5827 5826 5824 5823 5823 5822 5821 5819 5818 5817 5816 5816 5815 5815 5814 5814 5814 5813 5813 5813 5812 5812 5812 5812 5811 5811 5811 5811 5810 5810 5809 5807 5807 5807 5807 5806 5804 5804 5804 5804 5805 5805 5804 5801 5801 5802 5800 5799 5800 5800 5799 5798 5798 5798 5799 5799 5799 5799 5799 5799 5800 5800 5800 5801 5801 5801 5802 5802 5803 5803 5804 5804 5805 5805 5806
5844 5842 5842 5841 5840 5838 5837 5835 5834 5832 5831 5830 5829 5827 5826 5825 5824 5823 5822 5821 5820 5819 5818 5817 5816 5816 5815 5815 5815 5815 5814 5814 5813 5813 5813 5813 5812 5811 5811 5811 5810 5810 5810 5809 5808 5807 5808 5807 5806 5805 5805 5804 5805 5806 5806 5805 5803 5803 5803 5801 5800 5800 5801 5801 5800 5800 5799 5800 5801 5802 5801 5800 5801 5801 5801 5801 5802 5802 5803 5803 5804 5804 5805 5805 5805 5806 5807 5807
5844 5842 5841 5841 5840 5839 5837 5836 5834 5832 5831 5830 5829 5828 5826 5825 5824 5823 5822 5822 5820 5820 5819 5818 5817 5816 5816 5816 5816 5816 5815 5814 5814 5814 5815 5814 5813 5812 5812 5811 5809 5809 5809 5809 5809 5808 5808 5808 5806 5806 5806 5805 5805 5806 5805 5805 5804 5805 5805 5802 5800 5801 5801 5801 5801 5801 5801 5802 5803 5803 5802 5802 5802 5802 5802 5803 5803 5804 5804 5805 5805 5806 5806 5806 5806 5807 5808 5808
5843 5842 5841 5841 5840 5839 5837 5836 5834 5832 5831 5830 5829 5828 5827 5825 5825 5824 5823 5822 5821 5820 5819 5818 5817 5816 5816 5817 5817 5817 5816 5815 5815 5816 5816 5814 5813 5813 5812 5811 5810 5810 5809 5808 5808 5808 5808 5808 5807 5807 5808 5807 5806 5806 5806 5805 5805 5806 5806 5803 5801 5802 5802 5802 5802 5802 5802 5803 5803 5803 5803 5803 5803 5803 5803 5804 5804 5805 5805 5806 5806 5807 5807 5807 5807 5808 5809 5809
5843 5842 5841 5840 5840 5838 5837 5836 5834 5832 5831 5831 5830 5828 5827 5826 5825 5824 5823 5822 5821 5821 5820 5819 5818 5817 5816 5817 5817 5817 5816 5816 5816 5817 5816 5814 5814 5814 5813 5812 5811 5811 5809 5808 5808 5809 5809 5808 5808 5807 5808 5809 5808 5808 5807 5806 5806 5807 5806 5805 5803 5803 5803 5804 5804 5803 5804 5804 5804 5804 5805 5804 5804 5804 5804 5805 5805 5806 5806 5807 5807 5807 5808 5808 5809 5810 5810 5810
5843 5842 5841 5840 5839 5838 5837 5836 5834 5833 5831 5831 5830 5829 5827 5826 5825 5824 5824 5823 5822 5821 5820 5819 5818 5817 5817 5817 5817 5817 5817 5817 5817 5818 5816 5814 5814 5814 5813 5813 5812 5811 5810 5810 5810 5810 5809 5809 5810 5809 5808 5809 5810 5809 5807 5806 5806 5806 5806 5806 5805 5804 5804 5805 5806 5806 5805 5804 5805 5805 5805 5805 5805 5805 5806 5806 5806 5807 5807 5808 5808 5809 5809 5809 5810 5811 5811 5812
5843 5842 5840 5839 5839 5838 5837 5836 5835 5833 5831 5831 5830 5829 5828 5827 5826 5825 5824 5823 5823 5821 5820 5819 5818 5818 5819 5819 5818 5818 5817 5818 5818 5818 5816 5816 5815 5815 5815 5815 5814 5813 5812 5812 5812 5810 5809 5809 5811 5811 5809 5810 5811 5809 5808 5808 5808 5807 5807 5806 5806 5806 5806 5806 5806 5806 5805 5805 5806 5806 5806 5806 5806 5806 5807 5807 5807 5808 5808 5809 5810 5810 5810 5811 5811 5812 5812 5813
5843 5842 5840 5839 5839 5838 5837 5836 5835 5833 5832 5831 5830 5829 5828 5827 5826 5825 5824 5824 5822 5821 5820 5820 5819 5819 5820 5819 5818 5818 5818 5819 5818 5818 5817 5817 5816 5816 5816 5816 5816 5815 5814 5813 5812 5810 5810 5810 5811 5811 5810 5811 5811 5809 5809 5809 5809 5808 5808 5808 5808 5808 5808 5807 5807 5807 5807 5807 5808 5808 5807 5807 5807 5807 5807 5807 5808 5809 5809 5810 5810 5811 5812 5812 5812 5813 5813 5814
5843 5841 5840 5839 5838 5837 5837 5836 5835 5833 5832 5831 5830 5830 5828 5827 5826 5825 5824 5824 5822 5821 5821 5821 5821 5820 5820 5820 5819 5819 5819 5819 5818 5818 5818 5818 5818 5817 5817 5818 5818 5816 5815 5815 5813 5811 5811 5811 5812 5811 5811 5811 5811 5810 5811 5811 5810 5810 5810 5810 5810 5810 5809 5809 5808 5808 5808 5808 5809 5809 5808 5808 5808 5808 5808 5808 5809 5810 5811 5811 5811 5812 5813 5813 5814 5814 5814 5814
5842 5841 5840 5839 5838 5837 5836 5836 5835 5833 5832 5831 5830 5830 5829 5827 5826 5825 5825 5824 5823 5823 5822 5822 5821 5821 5820 5820 5820 5819 5819 5819 5820 5820 5819 5819 5819 5818 5819 5820 5818 5817 5817 5816 5814 5813 5813 5813 5813 5813 5812 5812 5812 5812 5813 5813 5812 5812 5812 5812 5812 5811 5810 5811 5810 5810 5809 5809 5810 5810 5809 5809 5809 5809 5809 5810 5810 5811 5813 5813 5812 5813 5813 5814 5815 5815 5815 5815
5842 5841 5840 5838 5837 5836 5836 5835 5835 5833 5832 5831 5830 5830 5829 5827 5826 5826 5825 5824 5824 5824 5823 5823 5822 5821 5820 5820 5820 5820 5820 5820 5823 5824 5821 5820 5820 5818 5819 5820 5818 5818 5818 5816 5815 5815 5815 5814 5814 5814 5813 5812 5813 5813 5813 5813 5813 5813 5813 5813 5813 5812 5812 5812 5812 5812 5812 5811 5811 5811 5811 5811 5811 5811 5811 5811 5811 5812 5813 5813 5814 5814 5815 5815 5816 5816 5816 5816
5841 5840 5839 5838 5837 5836 5835 5835 5834 5833 5832 5831 5830 5829 5829 5828 5827 5826 5825 5825 5824 5824 5823 5823 5823 5821 5821 5821 5821 5821 5821 5821 5824 5826 5823 5821 5821 5819 5818 5819 5818 5818 5819 5818 5817 5817 5817 5816 5816 5815 5815 5814 5814 5813 5814 5814 5814 5815 5815 5814 5814 5813 5813 5813 5813 5813 5812 5812 5813 5813 5812 5812 5812 5812 5812 5812 5812 5813 5813 5814 5815 5815 5816 5816 5816 5817 5817 5817
5841 5840 5839 5838 5836 5835 5835 5834 5834 5833 5832 5830 5830 5829 5829 5828 5827 5826 5825 5825 5825 5824 5824 5824 5823 5822 5821 5822 5822 5822 5822 5822 5823 5824 5823 5822 5822 5821 5820 5820 5820 5820 5820 5820 5820 5819 5818 5818 5818 5817 5817 5815 5814 5814 5815 5815 5815 5815 5815 5815 5815 5814 5814 5814 5814 5814 5814 5813 5814 5814 5813 5813 5814 5813 5813 5813 5813 5813 5814 5815 5815 5816 5816 5817 5817 5817 5817 5817
5840 5839 5838 5837 5836 5835 5834 5833 5833 5833 5832 5830 5830 5829 5829 5828 5827 5826 5826 5825 5825 5824 5825 5824 5824 5823 5823 5823 5823 5822 5822 5824 5824 5823 5823 5823 5823 5823 5822 5821 5822 5822 5821 5821 5821 5821 5820 5819 5820 5819 5818 5816 5815 5815 5816 5816 5816 5816 5816 5816 5815 5814 5814 5815 5815 5816 5816 5815 5814 5814 5815 5815 5814 5814 5814 5814 5814 5814 5815 5815 5816 5816 5817 5817 5817 5818 5818 5818
5839 5838 5837 5836 5835 5834 5833 5833 5832 5832 5831 5830 5830 5829 5829 5828 5827 5827 5826 5825 5825 5825 5825 5825 5824 5824 5824 5824 5824 5823 5823 5824 5825 5824 5824 5824 5824 5824 5823 5822 5823 5823 5822 5822 5822 5822 5822 5821 5822 5820 5819 5818 5817 5817 5817 5817 5816 5816 5816 5817 5816 5815 5816 5817 5817 5816 5816 5816 5816 5815 5816 5816 5815 5815 5815 5815 5815 5816 5816 5816 5816 5817 5817 5817 5818 5818 5818 5818
5838 5837 5837 5836 5835 5833 5832 5832 5831 5831 5831 5830 5829 5829 5828 5828 5827 5827 5826 5826 5826 5826 5826 5825 5825 5825 5824 5824 5824 5824 5824 5825 5826 5825 5825 5825 5825 5824 5824 5823 5823 5823 5823 5823 5823 5823 5823 5823 5823 5821 5820 5820 5818 5818 5818 5818 5818 5818 5818 5818 5819 5819 5819 5820 5818 5817 5817 5818 5818 5816 5815 5817 5816 5816 5816 5816 5817 5817 5817 5818 5818 5818 5818 5818 5818 5818 5819 5819
5837 5836 5836 5835 5834 5833 5832 5831 5831 5830 5830 5830 5829 5829 5828 5828 5827 5827 5826 5826 5826 5825 5826 5826 5826 5826 5825 5824 5824 5824 5824 5825 5827 5826 5826 5826 5826 5825 5825 5825 5825 5825 5825 5825 5825 5824 5823 5823 5823 5822 5822 5822 5820 5819 5819 5819 5819 5820 5820 5820 5820 5820 5820 5819 5818 5818 5818 5818 5818 5817 5817 5818 5817 5817 5817 5818 5818 5819 5819 5819 5819 5819 5818 5818 5818 5819 5819 5819
5835 5835 5834 5834 5833 5832 5831 5830 5830 5829 5829 5829 5828 5828 5828 5827 5827 5827 5826 5826 5826 5825 5826 5826 5826 5826 5825 5825 5824 5825 5825 5826 5827 5827 5827 5827 5827 5826 5826 5826 5826 5826 5826 5826 5826 5825 5824 5823 5823 5823 5823 5823 5822 5820 5820 5820 5821 5821 5822 5822 5822 5821 5820 5819 5818 5818 5818 5817 5817 5818 5818 5818 5817 5817 5818 5819 5819 5820 5820 5820 5820 5820 5819 5819 5819 5819 5819 5819
5834 5833 5833 5833 5832 5831 5830 5830 5829 5828 5828 5828 5828 5828 5827 5827 5827 5827 5827 5826 5826 5826 5826 5826 5827 5826 5825 5825 5825 5825 5825 5826 5827 5827 5827 5828 5827 5827 5827 5827 5827 5827 5827 5827 5827 5826 5825 5824 5823 5823 5823 5823 5823 5822 5822 5822 5822 5822 5823 5823 5823 5822 5821 5820 5820 5819 5819 5818 5818 5819 5819 5819 5818 5818 5819 5819 5820 5820 5820 5819 5819 5820 5820 5819 5819 5819 5819 5820
5832 5832 5831 5831 5831 5830 5829 5829 5828 5828 5827 5827 5827 5827 5827 5826 5826 5826 5826 5826 5826 5826 5826 5826 5827 5826 5826 5825 5825 5826 5827 5829 5830 5829 5828 5828 5828 5828 5828 5828 5828 5828 5828 5827 5827 5827 5826 5825 5824 5824 5824 5823 5823 5823 5823 5823 5823 5822 5822 5822 5823 5822 5822 5821 5821 5820 5819 5819 5819 5819 5819 5819 5819 5819 5819 5819 5820 5819 5819 5819 5819 5820 5820 5819 5819 5819 5819 5819
5830 5830 5830 5830 5829 5829 5828 5828 5827 5827 5827 5826 5827 5826 5826 5826 5826 5825 5826 5825 5826 5826 5826 5826 5826 5827 5827 5826 5826 5828 5828 5830 5831 5830 5829 5829 5828 5829 5830 5829 5828 5829 5828 5828 5827 5827 5826 5825 5824 5825 5825 5824 5824 5823 5824 5824 5823 5823 5822 5822 5822 5822 5822 5822 5821 5821 5819 5819 5820 5820 5820 5820 5820 5819 5820 5820 5820 5820 5820 5820 5819 5820 5820 5819 5819 5819 5819 5819
5828 5828 5828 5828 5828 5827 5827 5826 5826 5826 5826 5825 5826 5826 5825 5825 5825 5825 5825 5825 5825 5825 5826 5826 5827 5827 5827 5826 5827 5830 5830 5830 5830 5830 5829 5829 5829 5830 5830 5829 5829 5829 5829 5829 5829 5827 5827 5826 5825 5827 5827 5826 5826 5825 5825 5824 5824 5825 5825 5823 5822 5822 5822 5823 5822 5821 5821 5820 5821 5822 5822 5822 5821 5820 5820 5821 5820 5820 5820 5820 5819 5820 5820 5819 5819 5819 5819 5819
5826 5826 5826 5826 5826 5826 5825 5825 5825 5825 5825 5825 5825 5825 5825 5824 5824 5825 5826 5826 5827 5826 5825 5826 5826 5827 5827 5827 5827 5830 5832 5832 5830 5829 5829 5829 5829 5830 5830 5829 5829 5830 5830 5831 5830 5829 5828 5827 5827 5828 5828 5827 5827 5825 5825 5825 5825 5826 5826 5825 5825 5824 5824 5824 5823 5822 5823 5822 5821 5822 5823 5822 5821 5821 5821 5821 5821 5820 5820 5820 5820 5820 5820 5819 5818 5818 5818 5819
5824 5823 5824 5824 5824 5824 5823 5823 5824 5823 5823 5823 5824 5824 5824 5823 5823 5824 5825 5825 5826 5825 5824 5825 5826 5826 5826 5827 5827 5828 5829 5830 5829 5828 5829 5829 5829 5829 5829 5829 5830 5830 5831 5831 5831 5830 5829 5828 5828 5828 5828 5827 5827 5827 5827 5827 5826 5826 5826 5826 5826 5825 5825 5825 5824 5823 5824 5823 5822 5822 5823 5822 5821 5821 5821 5821 5820 5820 5820 5820 5820 5820 5820 5820 5819 5818 5817 5817
5821 5821 5821 5822 5822 5822 5822 5822 5822 5822 5822 5822 5822 5823 5823 5822 5822 5822 5823 5824 5824 5824 5824 5825 5825 5825 5826 5827 5829 5828 5828 5829 5828 5828 5830 5830 5829 5829 5830 5830 5830 5830 5831 5831 5831 5830 5830 5829 5828 5828 5828 5828 5828 5828 5827 5827 5827 5826 5826 5827 5826 5826 5826 5826 5825 5824 5823 5823 5823 5823 5822 5822 5822 5822 5821 5820 5820 5820 5819 5820 5820 5821 5820 5820 5818 5817 5817 5816
5819 5818 5819 5819 5819 5820 5820 5820 5820 5820 5820 5821 5821 5821 5822 5822 5821 5821 5822 5822 5823 5823 5823 5824 5824 5824 5826 5829 5830 5830 5829 5830 5829 5828 5830 5830 5829 5829 5829 5830 5830 5830 5830 5830 5830 5830 5830 5829 5828 5828 5829 5828 5828 5828 5827 5827 5827 5827 5827 5827 5827 5827 5827 5827 5826 5825 5823 5823 5822 5823 5823 5822 5822 5822 5821 5820 5820 5819 5819 5819 5820 5820 5819 5818 5817 5816 5816 5816
5816 5816 5816 5817 5817 5817 5817 5818 5818 5818 5819 5819 5820 5820 5820 5820 5820 5820 5820 5821 5821 5822 5822 5823 5823 5824 5825 5826 5828 5829 5830 5831 5830 5829 5830 5829 5828 5829 5829 5829 5830 5830 5829 5829 5830 5829 5829 5830 5829 5829 5829 5829 5828 5828 5828 5827 5827 5827 5827 5827 5827 5827 5827 5827 5826 5825 5824 5824 5823 5823 5823 5823 5822 5822 5821 5821 5820 5819 5818 5818 5819 5819 5817 5816 5816 5816 5815 5815
5813 5813 5814 5814 5814 5815 5815 5815 5816 5816 5817 5817 5818 5818 5819 5819 5819 5819 5819 5819 5819 5820 5821 5821 5822 5822 5823 5824 5825 5826 5827 5830 5832 5831 5830 5829 5827 5828 5828 5828 5829 5830 5829 5828 5829 5829 5828 5829 5829 5829 5829 5829 5828 5828 5828 5827 5827 5827 5827 5827 5827 5827 5827 5827 5827 5826 5826 5824 5824 5824 5823 5823 5822 5821 5821 5821 5820 5819 5818 5817 5818 5817 5816 5816 5815 5815 5814 5814
5810 5810 5811 5811 5811 5812 5812 5813 5814 5814 5815 5816 5816 5816 5817 5817 5817 5817 5817 5818 5818 5818 5819 5820 5820 5821 5822 5823 5824 5824 5825 5827 5831 5831 5830 5829 5828 5827 5828 5827 5829 5830 5829 5828 5829 5828 5827 5828 5828 5829 5829 5829 5828 5828 5828 5828 5827 5827 5827 5827 5827 5827 5827 5827 5827 5827 5826 5825 5825 5825 5823 5823 5823 5822 5820 5820 5819 5819 5818 5817 5816 5816 5816 5816 5815 5814 5813 5813
5806 5808 5809 5808 5808 5809 5809 5810 5811 5811 5812 5813 5814 5814 5815 5815 5816 5816 5816 5816 5816 5817 5817 5818 5819 5819 5820 5821 5822 5823 5823 5824 5827 5828 5829 5829 5828 5827 5826 5825 5826 5828 5828 5828 5828 5826 5826 5827 5827 5828 5828 5828 5827 5828 5828 5827 5827 5828 5828 5828 5828 5827 5827 5827 5827 5826 5826 5826 5825 5824 5822 5822 5823 5823 5820 5818 5818 5819 5819 5817 5815 5815 5815 5815 5814 5813 5812 5812
5802 5804 5805 5805 5806 5807 5806 5807 5808 5809 5810 5810 5811 5812 5813 5813 5814 5814 5814 5814 5814 5815 5815 5816 5817 5818 5819 5819 5819 5821 5822 5822 5824 5825 5827 5829 5830 5828 5826 5825 5825 5825 5826 5827 5826 5825 5826 5826 5826 5826 5827 5827 5827 5826 5826 5826 5826 5827 5827 5827 5827 5828 5827 5827 5826 5826 5826 5825 5824 5823 5822 5823 5823 5823 5822 5820 5818 5818 5818 5816 5815 5815 5815 5814 5813 5812 5811 5811
5798 5800 5802 5802 5803 5804 5804 5804 5805 5806 5807 5807 5808 5810 5811 5811 5812 5812 5812 5813 5813 5813 5813 5814 5815 5816 5817 5817 5818 5819 5819 5820 5821 5822 5823 5825 5827 5828 5827 5825 5825 5825 5825 5824 5823 5825 5826 5825 5825 5826 5826 5827 5826 5825 5824 5825 5826 5826 5826 5826 5826 5827 5828 5827 5826 5826 5825 5824 5824 5823 5823 5823 5823 5822 5821 5820 5819 5818 5818 5816 5816 5815 5814 5813 5812 5811 5811 5810
5794 5796 5798 5798 5800 5801 5801 5801 5802 5803 5803 5804 5805 5807 5808 5809 5810 5810 5810 5811 5811 5811 5811 5812 5813 5814 5815 5815 5816 5817 5817 5819 5820 5820 5820 5822 5823 5824 5825 5826 5824 5823 5823 5822 5821 5824 5825 5824 5824 5825 5825 5826 5825 5824 5824 5825 5825 5826 5826 5826 5826 5826 5826 5825 5825 5825 5825 5823 5823 5822 5822 5822 5821 5821 5820 5819 5819 5819 5818 5816 5815 5814 5813 5812 5812 5812 5811 5810
5790 5792 5793 5795 5796 5797 5798 5798 5799 5799 5800 5801 5802 5804 5805 5806 5807 5808 5808 5809 5809 5809 5809 5810 5811 5812 5812 5813 5814 5815 5816 5817 5818 5818 5819 5820 5820 5821 5823 5823 5822 5821 5821 5820 5820 5822 5822 5822 5823 5823 5823 5824 5824 5824 5824 5823 5824 5825 5825 5825 5825 5825 5825 5824 5824 5824 5823 5822 5822 5820 5820 5820 5819 5819 5819 5818 5817 5818 5817 5815 5815 5814 5812 5812 5812 5812 5812 5810
5786 5787 5789 5791 5794 5795 5795 5795 5796 5796 5796 5798 5799 5801 5802 5803 5804 5805 5805 5806 5807 5807 5807 5808 5809 5809 5810 5811 5812 5813 5814 5815 5816 5817 5817 5818 5819 5819 5819 5820 5820 5818 5819 5819 5818 5819 5819 5820 5821 5821 5821 5822 5823 5823 5822 5822 5823 5824 5824 5824 5824 5824 5824 5823 5823 5823 5822 5822 5821 5819 5818 5819 5818 5817 5817 5817 5816 5816 5816 5815 5814 5813 5812 5811 5811 5811 5810 5809
5781 5782 5785 5788 5790 5790 5791 5792 5793 5794 5794 5795 5796 5797 5799 5800 5801 5802 5803 5804 5804 5805 5805 5806 5806 5807 5808 5809 5809 5810 5811 5812 5813 5814 5815 5816 5816 5817 5817 5818 5817 5816 5815 5816 5816 5816 5816 5817 5818 5819 5819 5820 5820 5821 5821 5821 5821 5822 5823 5823 5823 5823 5823 5822 5821 5822 5821 5820 5819 5818 5817 5817 5817 5815 5814 5815 5816 5815 5815 5815 5814 5812 5810 5811 5810 5808 5808 5808
5776 5778 5781 5784 5785 5786 5788 5790 5791 5791 5791 5791 5793 5794 5796 5798 5798 5799 5799 5801 5802 5802 5803 5803 5804 5805 5806 5806 5807 5807 5808 5810 5811 5811 5812 5813 5813 5813 5814 5815 5814 5812 5812 5813 5814 5814 5813 5814 5815 5816 5817 5817 5818 5819 5820 5819 5820 5820 5820 5820 5820 5820 5821 5820 5819 5819 5818 5818 5817 5816 5816 5816 5816 5813 5812 5813 5814 5813 5812 5812 5812 5810 5810 5810 5809 5807 5808 5808
5772 5775 5778 5779 5780 5781 5784 5786 5786 5787 5788 5789 5790 5792 5793 5795 5795 5796 5796 5797 5799 5800 5800 5801 5802 5802 5803 5803 5804 5805 5806 5807 5808 5809 5810 5810 5810 5810 5812 5813 5813 5811 5810 5811 5812 5812 5811 5812 5812 5813 5814 5815 5817 5817 5818 5818 5817 5817 5817 5818 5819 5818 5817 5817 5817 5817 5817 5816 5816 5814 5815 5815 5813 5811 5810 5810 5811 5812 5811 5810 5808 5807 5807 5809 5809 5808 5808 5808
5768 5771 5773 5774 5775 5777 5780 5782 5782 5784 5785 5786 5787 5789 5790 5791 5792 5792 5793 5794 5796 5797 5798 5798 5798 5799 5799 5800 5801 5802 5803 5803 5803 5805 5806 5806 5807 5808 5809 5810 5811 5810 5809 5809 5810 5810 5809 5810 5812 5811 5811 5813 5814 5815 5815 5815 5813 5814 5815 5817 5817 5816 5816 5816 5817 5816 5815 5814 5814 5813 5814 5813 5810 5809 5808 5808 5809 5810 5810 5810 5808 5805 5804 5806 5807 5807 5807 5806
5764 5766 5767 5769 5771 5774 5776 5777 5778 5780 5781 5782 5784 5785 5786 5788 5789 5789 5790 5791 5792 5794 5795 5795 5795 5796 5797 5798 5799 5799 5799 5799 5800 5802 5803 5804 5805 5806 5806 5807 5807 5807 5807 5807 5807 5807 5807 5809 5810 5809 5808 5809 5811 5812 5812 5811 5810 5812 5814 5814 5815 5815 5815 5816 5815 5815 5814 5813 5812 5812 5812 5811 5809 5808 5807 5807 5808 5809 5809 5809 5809 5806 5803 5804 5805 5805 5805 5804